Time,TemperatureF,DewpointF,PressureIn,WindDirection,WindDirectionDegrees,WindSpeedMPH,WindSpeedGustMPH,Humidity,HourlyPrecipIn,Conditions,Clouds,dailyrainin,SoftwareType,DateUTC
2013-04-10 00:00:00,66.7,62.4,30.14,SE,140,1.0,3.0,86,0.00,,,0.00,Weather View 32 v70,2013-04-10 04:00:00,
2013-04-10 00:10:00,66.7,62.4,30.14,SE,135,2.0,4.0,86,0.00,,,0.00,Weather View 32 v70,2013-04-10 04:10:00,
2013-04-10 00:20:00,66.6,62.6,30.14,SE,142,0.0,4.0,87,0.00,,,0.00,Weather View 32 v70,2013-04-10 04:20:00,
2013-04-10 00:30:00,64.4,60.1,30.14,SE,142,0.0,4.0,86,0.00,,,0.00,Weather View 32 v70,2013-04-10 04:30:00,
2013-04-10 00:40:00,64.3,60.7,30.13,SE,142,0.0,4.0,88,0.00,,,0.00,Weather View 32 v70,2013-04-10 04:40:00,
2013-04-10 00:50:00,62.3,58.4,30.13,SE,142,0.0,4.0,87,0.00,,,0.00,Weather View 32 v70,2013-04-10 04:50:00,
2013-04-10 01:00:00,61.7,59.3,30.13,SE,142,0.0,4.0,92,0.00,,,0.00,Weather View 32 v70,2013-04-10 05:00:00,
2013-04-10 01:10:00,61.8,59.1,30.13,SE,142,0.0,3.0,91,0.00,,,0.00,Weather View 32 v70,2013-04-10 05:10:00,
2013-04-10 01:20:00,62.1,59.4,30.13,SE,142,0.0,2.0,91,0.00,,,0.00,Weather View 32 v70,2013-04-10 05:20:00,
2013-04-10 01:30:00,62.1,59.7,30.12,SE,142,0.0,1.0,92,0.00,,,0.00,Weather View 32 v70,2013-04-10 05:30:00,
2013-04-10 01:40:00,64.9,62.5,30.12,South,175,0.0,2.0,92,0.00,,,0.00,Weather View 32 v70,2013-04-10 05:40:00,
2013-04-10 01:50:00,65.4,62.4,30.12,South,183,1.0,2.0,90,0.00,,,0.00,Weather View 32 v70,2013-04-10 05:50:00,
2013-04-10 02:00:00,65.3,62.3,30.12,South,188,0.0,2.0,90,0.00,,,0.00,Weather View 32 v70,2013-04-10 06:00:00,
2013-04-10 02:10:00,65.4,62.4,30.11,SSE,168,0.0,3.0,90,0.00,,,0.00,Weather View 32 v70,2013-04-10 06:10:00,
2013-04-10 02:15:00,65.4,62.4,30.11,SSE,168,0.0,3.0,90,0.00,,,0.00,Weather View 32 v70,2013-04-10 06:15:00,
2013-04-10 02:30:00,65.2,62.2,30.10,South,170,0.0,3.0,90,0.00,,,0.00,Weather View 32 v70,2013-04-10 06:30:00,
2013-04-10 02:40:00,65.3,62.6,30.10,South,170,1.0,3.0,91,0.00,,,0.00,Weather View 32 v70,2013-04-10 06:40:00,
2013-04-10 02:50:00,65.4,62.4,30.10,South,187,0.0,3.0,90,0.00,,,0.00,Weather View 32 v70,2013-04-10 06:50:00,
2013-04-10 03:00:00,65.2,62.5,30.10,SSW,196,1.0,3.0,91,0.00,,,0.00,Weather View 32 v70,2013-04-10 07:00:00,
2013-04-10 03:10:00,64.8,62.1,30.09,SSW,200,1.0,3.0,91,0.00,,,0.00,Weather View 32 v70,2013-04-10 07:10:00,
2013-04-10 03:20:00,63.9,60.6,30.09,SSW,199,0.0,3.0,89,0.00,,,0.00,Weather View 32 v70,2013-04-10 07:20:00,
2013-04-10 03:30:00,60.5,57.5,30.09,SSW,199,0.0,3.0,90,0.00,,,0.00,Weather View 32 v70,2013-04-10 07:30:00,
2013-04-10 03:40:00,59.5,57.2,30.09,SSW,199,0.0,3.0,92,0.00,,,0.00,Weather View 32 v70,2013-04-10 07:40:00,
2013-04-10 03:50:00,58.9,56.9,30.09,SSW,199,1.0,2.0,93,0.00,,,0.00,Weather View 32 v70,2013-04-10 07:50:00,
2013-04-10 04:00:00,59.0,57.3,30.09,SSW,199,0.0,2.0,94,0.00,,,0.00,Weather View 32 v70,2013-04-10 08:00:00,
2013-04-10 04:10:00,59.4,57.7,30.09,SSW,199,1.0,2.0,94,0.00,,,0.00,Weather View 32 v70,2013-04-10 08:10:00,
2013-04-10 04:16:00,59.4,57.7,30.09,SSW,199,1.0,2.0,94,0.00,,,0.00,Weather View 32 v70,2013-04-10 08:16:00,
2013-04-10 04:20:00,59.3,57.9,30.09,SSW,199,0.0,2.0,95,0.00,,,0.00,Weather View 32 v70,2013-04-10 08:20:00,
2013-04-10 04:30:00,57.6,55.6,30.09,SSW,199,0.0,2.0,93,0.00,,,0.00,Weather View 32 v70,2013-04-10 08:30:00,
2013-04-10 04:40:00,57.9,56.2,30.09,SSW,199,0.0,2.0,94,0.00,,,0.00,Weather View 32 v70,2013-04-10 08:40:00,
2013-04-10 04:50:00,57.2,55.5,30.09,SSW,199,0.0,2.0,94,0.00,,,0.00,Weather View 32 v70,2013-04-10 08:50:00,
2013-04-10 05:00:00,58.2,56.8,30.08,SSW,199,0.0,2.0,95,0.00,,,0.00,Weather View 32 v70,2013-04-10 09:00:00,
2013-04-10 05:10:00,57.9,56.2,30.08,SSW,199,0.0,2.0,94,0.00,,,0.00,Weather View 32 v70,2013-04-10 09:10:00,
2013-04-10 05:17:00,57.9,56.2,30.08,SSW,199,0.0,2.0,94,0.00,,,0.00,Weather View 32 v70,2013-04-10 09:17:00,
2013-04-10 05:20:00,58.4,56.7,30.08,SSW,199,0.0,1.0,94,0.00,,,0.00,Weather View 32 v70,2013-04-10 09:20:00,
2013-04-10 05:30:00,57.4,55.7,30.08,SSW,199,0.0,0.0,94,0.00,,,0.00,Weather View 32 v70,2013-04-10 09:30:00,
2013-04-10 05:40:00,56.6,54.9,30.08,SSW,199,0.0,0.0,94,0.00,,,0.00,Weather View 32 v70,2013-04-10 09:40:00,
2013-04-10 05:50:00,56.7,55.0,30.08,SSW,199,2.0,2.0,94,0.00,,,0.00,Weather View 32 v70,2013-04-10 09:50:00,
2013-04-10 06:00:00,56.4,54.7,30.09,SSW,199,0.0,2.0,94,0.00,,,0.00,Weather View 32 v70,2013-04-10 10:00:00,
2013-04-10 06:10:00,54.8,52.8,30.09,SSW,199,0.0,2.0,93,0.00,,,0.00,Weather View 32 v70,2013-04-10 10:10:00,
2013-04-10 06:17:00,54.8,52.8,30.09,SSW,199,0.0,2.0,93,0.00,,,0.00,Weather View 32 v70,2013-04-10 10:17:00,
2013-04-10 06:20:00,54.3,52.3,30.09,SSW,199,0.0,2.0,93,0.00,,,0.00,Weather View 32 v70,2013-04-10 10:20:00,
2013-04-10 06:30:00,53.9,51.9,30.08,SSW,199,0.0,2.0,93,0.00,,,0.00,Weather View 32 v70,2013-04-10 10:30:00,
2013-04-10 06:40:00,54.0,52.0,30.08,SSW,199,0.0,2.0,93,0.00,,,0.00,Weather View 32 v70,2013-04-10 10:40:00,
2013-04-10 06:50:00,53.7,51.7,30.08,SSW,199,0.0,2.0,93,0.00,,,0.00,Weather View 32 v70,2013-04-10 10:50:00,
2013-04-10 07:00:00,53.5,51.8,30.09,SSW,199,0.0,1.0,94,0.00,,,0.00,Weather View 32 v70,2013-04-10 11:00:00,
2013-04-10 07:10:00,53.5,51.5,30.09,SSW,199,0.0,1.0,93,0.00,,,0.00,Weather View 32 v70,2013-04-10 11:10:00,
2013-04-10 07:18:00,53.5,51.5,30.09,SSW,199,0.0,1.0,93,0.00,,,0.00,Weather View 32 v70,2013-04-10 11:18:00,
2013-04-10 07:20:00,53.4,51.7,30.09,SSW,199,0.0,1.0,94,0.00,,,0.00,Weather View 32 v70,2013-04-10 11:20:00,
2013-04-10 07:30:00,53.7,52.0,30.09,SSW,199,0.0,1.0,94,0.00,,,0.00,Weather View 32 v70,2013-04-10 11:30:00,
2013-04-10 07:40:00,53.5,51.5,30.09,SSW,199,0.0,1.0,93,0.00,,,0.00,Weather View 32 v70,2013-04-10 11:40:00,
2013-04-10 07:50:00,53.9,52.2,30.09,NW,304,0.0,2.0,94,0.00,,,0.00,Weather View 32 v70,2013-04-10 11:50:00,
2013-04-10 08:00:00,55.2,53.5,30.10,NW,304,0.0,2.0,94,0.00,,,0.00,Weather View 32 v70,2013-04-10 12:00:00,
2013-04-10 08:10:00,56.6,54.9,30.10,NW,304,0.0,2.0,94,0.00,,,0.00,Weather View 32 v70,2013-04-10 12:10:00,
2013-04-10 08:18:00,56.6,54.9,30.10,NW,304,0.0,2.0,94,0.00,,,0.00,Weather View 32 v70,2013-04-10 12:18:00,
2013-04-10 08:20:00,58.0,56.3,30.10,NW,304,0.0,2.0,94,0.00,,,0.00,Weather View 32 v70,2013-04-10 12:20:00,
2013-04-10 08:30:00,60.1,58.4,30.10,NW,304,0.0,2.0,94,0.00,,,0.00,Weather View 32 v70,2013-04-10 12:30:00,
2013-04-10 08:40:00,63.2,61.1,30.10,NW,304,0.0,2.0,93,0.00,,,0.00,Weather View 32 v70,2013-04-10 12:40:00,
2013-04-10 08:50:00,65.0,62.6,30.10,West,277,0.0,2.0,92,0.00,,,0.00,Weather View 32 v70,2013-04-10 12:50:00,
2013-04-10 09:00:00,65.8,63.1,30.10,SW,232,2.0,3.0,91,0.00,,,0.00,Weather View 32 v70,2013-04-10 13:00:00,
2013-04-10 09:10:00,66.8,63.8,30.10,SW,225,2.0,3.0,90,0.00,,,0.00,Weather View 32 v70,2013-04-10 13:10:00,
2013-04-10 09:19:00,66.8,63.8,30.10,SW,225,2.0,3.0,90,0.00,,,0.00,Weather View 32 v70,2013-04-10 13:19:00,
2013-04-10 09:20:00,67.7,64.3,30.11,WSW,242,2.0,4.0,89,0.00,,,0.00,Weather View 32 v70,2013-04-10 13:20:00,
2013-04-10 09:30:00,69.1,64.7,30.11,SSW,194,0.0,6.0,86,0.00,,,0.00,Weather View 32 v70,2013-04-10 13:30:00,
2013-04-10 09:40:00,70.4,65.3,30.11,SW,220,4.0,6.0,84,0.00,,,0.00,Weather View 32 v70,2013-04-10 13:40:00,
2013-04-10 09:50:00,71.3,65.8,30.12,SW,216,3.0,6.0,83,0.00,,,0.00,Weather View 32 v70,2013-04-10 13:50:00,
2013-04-10 10:00:00,71.9,66.1,30.12,SW,221,0.0,6.0,82,0.00,,,0.00,Weather View 32 v70,2013-04-10 14:00:00,
2013-04-10 10:10:00,72.9,65.2,30.12,SW,234,1.0,6.0,77,0.00,,,0.00,Weather View 32 v70,2013-04-10 14:10:00,
2013-04-10 10:19:00,72.9,65.2,30.12,SW,234,1.0,6.0,77,0.00,,,0.00,Weather View 32 v70,2013-04-10 14:19:00,
2013-04-10 10:20:00,73.7,64.9,30.11,SW,220,2.0,8.0,74,0.00,,,0.00,Weather View 32 v70,2013-04-10 14:20:00,
2013-04-10 10:30:00,74.2,64.6,30.11,SW,220,3.0,8.0,72,0.00,,,0.00,Weather View 32 v70,2013-04-10 14:30:00,
2013-04-10 10:40:00,74.7,64.2,30.11,SW,227,3.0,8.0,70,0.00,,,0.00,Weather View 32 v70,2013-04-10 14:40:00,
2013-04-10 10:50:00,75.2,64.7,30.11,SSW,207,2.0,8.0,70,0.00,,,0.00,Weather View 32 v70,2013-04-10 14:50:00,
2013-04-10 11:00:00,74.9,65.2,30.11,WSW,242,4.0,8.0,72,0.00,,,0.00,Weather View 32 v70,2013-04-10 15:00:00,
2013-04-10 11:10:00,75.5,65.4,30.11,SSW,196,1.0,8.0,71,0.00,,,0.00,Weather View 32 v70,2013-04-10 15:10:00,
2013-04-10 11:21:00,75.3,65.6,30.11,SW,217,0.0,8.0,72,0.00,,,0.00,Weather View 32 v70,2013-04-10 15:21:00,
2013-04-10 11:30:00,75.4,65.7,30.11,WSW,254,4.0,8.0,72,0.00,,,0.00,Weather View 32 v70,2013-04-10 15:30:00,
2013-04-10 11:40:00,75.6,64.7,30.11,WSW,241,0.0,8.0,69,0.00,,,0.00,Weather View 32 v70,2013-04-10 15:40:00,
2013-04-10 11:50:00,75.8,65.7,30.10,WSW,244,4.0,7.0,71,0.00,,,0.00,Weather View 32 v70,2013-04-10 15:50:00,
2013-04-10 12:00:00,75.7,65.6,30.10,WSW,242,4.0,7.0,71,0.00,,,0.00,Weather View 32 v70,2013-04-10 16:00:00,
2013-04-10 12:10:00,75.9,65.8,30.10,WSW,241,6.0,7.0,71,0.00,,,0.00,Weather View 32 v70,2013-04-10 16:10:00,
2013-04-10 12:20:00,76.2,66.1,30.10,WSW,247,1.0,7.0,71,0.00,,,0.00,Weather View 32 v70,2013-04-10 16:20:00,
2013-04-10 12:30:00,76.7,65.7,30.10,South,182,3.0,7.0,69,0.00,,,0.00,Weather View 32 v70,2013-04-10 16:30:00,
2013-04-10 12:40:00,78.0,64.3,30.09,SW,227,2.0,7.0,63,0.00,,,0.00,Weather View 32 v70,2013-04-10 16:40:00,
2013-04-10 12:50:00,78.2,65.4,30.09,SW,234,8.0,12.0,65,0.00,,,0.00,Weather View 32 v70,2013-04-10 16:50:00,
2013-04-10 13:00:00,78.7,64.5,30.08,SSW,211,4.0,12.0,62,0.00,,,0.00,Weather View 32 v70,2013-04-10 17:00:00,
2013-04-10 13:10:00,78.5,64.8,30.08,SW,222,4.0,12.0,63,0.00,,,0.00,Weather View 32 v70,2013-04-10 17:10:00,
2013-04-10 13:20:00,78.4,66.9,30.08,SW,228,0.0,12.0,68,0.00,,,0.00,Weather View 32 v70,2013-04-10 17:20:00,
2013-04-10 13:22:00,78.4,66.9,30.08,SW,228,0.0,12.0,68,0.00,,,0.00,Weather View 32 v70,2013-04-10 17:22:00,
2013-04-10 13:30:00,79.2,64.1,30.08,SSW,195,2.0,12.0,60,0.00,,,0.00,Weather View 32 v70,2013-04-10 17:30:00,
2013-04-10 13:40:00,80.1,61.9,30.07,South,188,1.0,12.0,54,0.00,,,0.00,Weather View 32 v70,2013-04-10 17:40:00,
2013-04-10 13:50:00,80.7,62.4,30.07,SW,217,4.0,10.0,54,0.00,,,0.00,Weather View 32 v70,2013-04-10 17:50:00,
2013-04-10 14:00:00,80.2,63.5,30.06,SW,236,6.0,8.0,57,0.00,,,0.00,Weather View 32 v70,2013-04-10 18:00:00,
2013-04-10 14:10:00,80.5,62.8,30.06,SE,143,6.0,12.0,55,0.00,,,0.00,Weather View 32 v70,2013-04-10 18:10:00,
2013-04-10 14:20:00,80.0,64.8,30.06,ESE,109,7.0,12.0,60,0.00,,,0.00,Weather View 32 v70,2013-04-10 18:20:00,
2013-04-10 14:22:00,80.0,64.8,30.06,ESE,109,7.0,12.0,60,0.00,,,0.00,Weather View 32 v70,2013-04-10 18:22:00,
2013-04-10 14:30:00,80.4,64.2,30.06,SSE,161,5.0,12.0,58,0.00,,,0.00,Weather View 32 v70,2013-04-10 18:30:00,
2013-04-10 14:40:00,81.6,61.7,30.05,South,182,2.0,12.0,51,0.00,,,0.00,Weather View 32 v70,2013-04-10 18:40:00,
2013-04-10 14:50:00,81.2,62.9,30.04,SSE,165,1.0,12.0,54,0.00,,,0.00,Weather View 32 v70,2013-04-10 18:50:00,
2013-04-10 15:00:00,81.2,63.4,30.04,SE,139,3.0,12.0,55,0.00,,,0.00,Weather View 32 v70,2013-04-10 19:00:00,
2013-04-10 15:10:00,81.0,64.8,30.04,SSE,164,2.0,10.0,58,0.00,,,0.00,Weather View 32 v70,2013-04-10 19:10:00,
2013-04-10 15:20:00,81.1,63.9,30.03,ESE,121,5.0,9.0,56,0.00,,,0.00,Weather View 32 v70,2013-04-10 19:20:00,
2013-04-10 15:30:00,81.0,64.3,30.03,South,188,1.0,9.0,57,0.00,,,0.00,Weather View 32 v70,2013-04-10 19:30:00,
2013-04-10 15:40:00,81.1,64.4,30.03,South,171,1.0,10.0,57,0.00,,,0.00,Weather View 32 v70,2013-04-10 19:40:00,
2013-04-10 15:50:00,81.8,66.5,30.02,SSE,162,6.0,10.0,60,0.00,,,0.00,Weather View 32 v70,2013-04-10 19:50:00,
2013-04-10 16:00:00,81.1,66.3,30.02,ESE,110,5.0,13.0,61,0.00,,,0.00,Weather View 32 v70,2013-04-10 20:00:00,
2013-04-10 16:10:00,80.9,66.1,30.02,ESE,122,3.0,13.0,61,0.00,,,0.00,Weather View 32 v70,2013-04-10 20:10:00,
2013-04-10 16:20:00,80.5,66.2,30.01,ESE,109,4.0,13.0,62,0.00,,,0.00,Weather View 32 v70,2013-04-10 20:20:00,
2013-04-10 16:23:00,80.5,66.2,30.01,ESE,109,4.0,13.0,62,0.00,,,0.00,Weather View 32 v70,2013-04-10 20:23:00,
2013-04-10 16:30:00,80.6,66.3,30.01,SE,140,6.0,13.0,62,0.00,,,0.00,Weather View 32 v70,2013-04-10 20:30:00,
2013-04-10 16:40:00,81.2,67.4,30.01,ESE,119,8.0,13.0,63,0.00,,,0.00,Weather View 32 v70,2013-04-10 20:40:00,
2013-04-10 16:50:00,80.8,66.5,30.01,SE,136,7.0,13.0,62,0.00,,,0.00,Weather View 32 v70,2013-04-10 20:50:00,
2013-04-10 17:00:00,81.2,68.3,30.01,SW,232,3.0,13.0,65,0.00,,,0.00,Weather View 32 v70,2013-04-10 21:00:00,
2013-04-10 17:10:00,80.2,67.8,30.00,SE,132,8.0,13.0,66,0.00,,,0.00,Weather View 32 v70,2013-04-10 21:10:00,
2013-04-10 17:20:00,80.0,67.1,30.00,SE,128,8.0,13.0,65,0.00,,,0.00,Weather View 32 v70,2013-04-10 21:20:00,
2013-04-10 17:24:00,80.0,67.1,30.00,SE,128,8.0,13.0,65,0.00,,,0.00,Weather View 32 v70,2013-04-10 21:24:00,
2013-04-10 17:30:00,80.3,67.0,30.00,South,173,2.0,13.0,64,0.00,,,0.00,Weather View 32 v70,2013-04-10 21:30:00,
2013-04-10 17:40:00,80.1,66.8,30.00,SE,128,6.0,13.0,64,0.00,,,0.00,Weather View 32 v70,2013-04-10 21:40:00,
2013-04-10 17:50:00,80.0,67.1,30.00,SSE,153,3.0,13.0,65,0.00,,,0.00,Weather View 32 v70,2013-04-10 21:50:00,
2013-04-10 18:00:00,79.6,67.2,30.00,SE,141,9.0,13.0,66,0.00,,,0.00,Weather View 32 v70,2013-04-10 22:00:00,
2013-04-10 18:10:00,79.5,67.1,30.00,ESE,123,9.0,14.0,66,0.00,,,0.00,Weather View 32 v70,2013-04-10 22:10:00,
2013-04-10 18:20:00,79.3,67.3,30.00,SSE,154,8.0,14.0,67,0.00,,,0.00,Weather View 32 v70,2013-04-10 22:20:00,
2013-04-10 18:24:00,79.3,67.3,30.00,SSE,154,8.0,14.0,67,0.00,,,0.00,Weather View 32 v70,2013-04-10 22:24:00,
2013-04-10 18:30:00,79.3,66.9,30.00,SE,126,8.0,14.0,66,0.00,,,0.00,Weather View 32 v70,2013-04-10 22:30:00,
2013-04-10 18:40:00,79.2,66.8,30.00,SE,136,6.0,14.0,66,0.00,,,0.00,Weather View 32 v70,2013-04-10 22:40:00,
2013-04-10 18:50:00,78.9,66.5,30.00,SE,130,7.0,14.0,66,0.00,,,0.00,Weather View 32 v70,2013-04-10 22:50:00,
2013-04-10 19:00:00,78.5,66.6,30.00,SE,142,7.0,14.0,67,0.00,,,0.00,Weather View 32 v70,2013-04-10 23:00:00,
2013-04-10 19:10:00,78.1,66.6,30.00,SSE,155,4.0,12.0,68,0.00,,,0.00,Weather View 32 v70,2013-04-10 23:10:00,
2013-04-10 19:20:00,77.6,66.6,30.00,SSE,160,3.0,12.0,69,0.00,,,0.00,Weather View 32 v70,2013-04-10 23:20:00,
2013-04-10 19:25:00,77.6,66.6,30.00,SSE,160,3.0,12.0,69,0.00,,,0.00,Weather View 32 v70,2013-04-10 23:25:00,
2013-04-10 19:30:00,77.1,66.5,30.00,SE,138,7.0,12.0,70,0.00,,,0.00,Weather View 32 v70,2013-04-10 23:30:00,
2013-04-10 19:40:00,76.6,66.5,30.00,SE,131,5.0,12.0,71,0.00,,,0.00,Weather View 32 v70,2013-04-10 23:40:00,
2013-04-10 19:50:00,76.2,66.9,30.00,SE,129,5.0,12.0,73,0.00,,,0.00,Weather View 32 v70,2013-04-10 23:50:00,
2013-04-10 20:10:00,75.4,66.5,30.00,SSE,147,7.0,12.0,74,0.00,,,0.00,Weather View 32 v70,2013-04-11 00:10:00,
2013-04-10 20:20:00,75.0,66.5,30.00,SE,134,4.0,11.0,75,0.00,,,0.00,Weather View 32 v70,2013-04-11 00:20:00,
2013-04-10 20:25:00,75.0,66.5,30.00,SE,134,4.0,11.0,75,0.00,,,0.00,Weather View 32 v70,2013-04-11 00:25:00,
2013-04-10 20:30:00,74.4,66.3,30.00,SE,139,4.0,11.0,76,0.00,,,0.00,Weather View 32 v70,2013-04-11 00:30:00,
2013-04-10 20:40:00,74.0,66.3,30.00,SE,130,5.0,8.0,77,0.00,,,0.00,Weather View 32 v70,2013-04-11 00:40:00,
2013-04-10 20:50:00,73.8,66.1,30.00,SSE,155,4.0,8.0,77,0.00,,,0.00,Weather View 32 v70,2013-04-11 00:50:00,
2013-04-10 21:00:00,73.5,66.6,30.00,SE,132,4.0,8.0,79,0.00,,,0.00,Weather View 32 v70,2013-04-11 01:00:00,
2013-04-10 21:10:00,73.0,66.1,30.00,SSE,148,5.0,8.0,79,0.00,,,0.00,Weather View 32 v70,2013-04-11 01:10:00,
2013-04-10 21:20:00,72.7,66.1,30.00,SE,141,5.0,8.0,80,0.00,,,0.00,Weather View 32 v70,2013-04-11 01:20:00,
2013-04-10 21:30:00,72.6,66.4,30.01,SSE,153,3.0,9.0,81,0.00,,,0.00,Weather View 32 v70,2013-04-11 01:30:00,
2013-04-10 21:40:00,72.4,66.6,30.00,SSE,163,2.0,9.0,82,0.00,,,0.00,Weather View 32 v70,2013-04-11 01:40:00,
2013-04-10 21:50:00,72.1,66.3,30.01,SSE,166,1.0,9.0,82,0.00,,,0.00,Weather View 32 v70,2013-04-11 01:50:00,
2013-04-10 22:00:00,72.1,66.6,30.00,South,173,1.0,9.0,83,0.00,,,0.00,Weather View 32 v70,2013-04-11 02:00:00,
2013-04-10 22:10:00,71.9,66.8,30.01,South,182,2.0,9.0,84,0.00,,,0.00,Weather View 32 v70,2013-04-11 02:10:00,
2013-04-10 22:20:00,71.8,67.0,30.01,South,183,2.0,9.0,85,0.00,,,0.00,Weather View 32 v70,2013-04-11 02:20:00,
2013-04-10 22:27:00,71.8,67.0,30.01,South,183,2.0,9.0,85,0.00,,,0.00,Weather View 32 v70,2013-04-11 02:27:00,
2013-04-10 22:30:00,71.7,66.9,30.01,South,181,1.0,7.0,85,0.00,,,0.00,Weather View 32 v70,2013-04-11 02:30:00,
2013-04-10 22:40:00,71.5,67.1,30.01,SSE,161,2.0,6.0,86,0.00,,,0.00,Weather View 32 v70,2013-04-11 02:40:00,
2013-04-10 22:50:00,71.5,67.4,30.01,SSW,202,4.0,6.0,87,0.00,,,0.00,Weather View 32 v70,2013-04-11 02:50:00,
2013-04-10 23:00:00,71.4,67.3,30.01,SSW,196,1.0,6.0,87,0.00,,,0.00,Weather View 32 v70,2013-04-11 03:00:00,
2013-04-10 23:10:00,71.3,67.2,30.00,SSE,167,4.0,6.0,87,0.00,,,0.00,Weather View 32 v70,2013-04-11 03:10:00,
2013-04-10 23:20:00,71.3,67.5,30.00,South,191,1.0,6.0,88,0.00,,,0.00,Weather View 32 v70,2013-04-11 03:20:00,
2013-04-10 23:27:00,71.3,67.5,30.00,South,191,1.0,6.0,88,0.00,,,0.00,Weather View 32 v70,2013-04-11 03:27:00,
2013-04-10 23:40:00,70.9,67.5,30.00,South,174,2.0,5.0,89,0.00,,,0.00,Weather View 32 v70,2013-04-11 03:40:00,
2013-04-10 23:50:00,70.8,67.7,29.99,South,173,2.0,4.0,90,0.00,,,0.00,Weather View 32 v70,2013-04-11 03:50:00,